IRIDIUM 47 [P]

Last updated on Fri Aug 17 2018 00:20:51 GMT+0000 (Coordinated Universal Time)

1 25106U 97082C 18228.08472966 -.00000030 00000-0 -16331-4 0 9996 2 25106 86.4185 77.7134 0001929 83.1444 276.9974 14.38605229 81308
UTC large
Height (km)
Speed (km/s)
/
Latitude / Longitude
Inclination (degrees)
Orbital Period (minutes)
Azimuth
Elevation
Range (km)
Doppler Factor

Next 0 passes for location: London (51.5072 / 0.1276)

Sorry there are no passes over London.